Theta_e
295 295 294 294 293 293 292 292 292 291 293 292 290 290 295 291 280 283 291 293 292 295 299 300 301 302 302 303 302 303 305 306 307 307 306 305 305 307 310 309 310 311 311 312 313 315 315 315 316 317 319 319 319 318 318 317 316 315 315 315 315 316 318 317 317 318 319 319 319 319 319 319 318 318 319 319 320 320 319 317 318 316 317 320 319 318 319
294 294 294 295 293 293 292 291 292 292 293 291 291 291 294 294 292 293 293 293 293 298 299 301 301 301 300 300 301 301 300 300 299 299 298 298 299 300 302 303 302 303 306 308 307 311 314 315 315 316 316 318 317 317 316 316 315 314 314 313 314 315 317 318 319 319 319 318 318 317 317 317 316 316 317 317 317 320 321 318 319 319 319 319 318 318 318
289 293 295 294 293 293 290 292 293 293 293 292 291 290 291 293 291 291 293 293 293 300 302 301 301 301 301 300 298 298 297 297 297 296 296 296 297 298 299 301 302 302 303 303 304 303 305 311 314 314 314 315 317 316 316 316 315 315 315 314 314 315 316 318 318 318 318 318 318 317 316 316 317 316 317 317 317 318 319 318 318 320 319 318 317 317 317
284 293 293 292 291 290 290 290 291 291 289 286 289 285 291 290 289 290 289 287 289 298 301 300 299 298 298 297 297 296 296 296 295 295 295 295 295 296 297 299 300 301 301 301 302 302 303 304 304 304 308 313 313 314 315 316 317 317 315 315 315 315 315 317 318 318 317 317 317 316 316 316 316 317 317 317 317 317 318 317 317 318 318 317 317 316 317
282 291 292 290 288 285 284 286 289 292 291 290 290 292 291 290 293 286 285 287 295 298 298 295 296 297 297 297 296 296 296 296 296 295 295 295 296 296 297 298 299 299 300 300 301 301 302 303 303 304 305 305 310 314 314 314 317 315 314 314 314 315 316 316 316 316 316 316 316 316 316 316 315 316 315 315 316 316 316 317 317 317 317 317 316 316 316
283 290 290 288 282 276 281 291 294 295 290 290 288 288 290 294 293 291 294 293 295 295 295 294 293 294 294 296 298 299 297 295 294 295 295 296 297 297 297 298 298 299 300 300 301 301 302 303 303 304 305 305 305 311 315 316 315 314 314 314 313 313 315 315 315 316 316 316 316 316 316 315 314 313 313 312 313 314 315 315 315 315 314 314 314 314 314
282 284 285 280 275 278 290 294 295 297 295 294 292 293 295 295 295 295 294 293 293 293 294 294 294 294 296 297 297 296 297 296 295 293 293 295 296 298 299 298 298 299 300 300 300 300 301 303 303 304 304 305 305 305 306 308 312 313 314 314 313 312 312 313 313 314 316 315 315 315 315 315 313 313 312 313 313 312 313 314 313 312 307 312 312 312 313
283 282 282 274 276 287 292 294 292 295 297 294 292 290 294 296 295 294 292 292 293 293 293 293 294 294 294 295 296 297 297 297 295 294 293 294 296 296 297 297 298 300 300 300 300 301 303 303 303 304 304 305 304 304 305 304 304 305 307 309 312 311 311 311 313 313 314 314 314 314 314 313 313 313 312 312 311 311 311 313 312 311 312 312 312 312 313
281 281 281 281 288 286 286 285 288 289 287 288 287 283 289 296 295 294 292 293 293 293 293 293 294 294 293 291 291 296 297 298 297 296 295 294 294 296 297 299 300 301 302 302 302 303 303 304 304 303 304 305 304 304 303 303 303 303 303 303 304 304 306 310 313 313 312 311 312 312 312 312 311 310 311 312 312 314 314 313 313 313 313 312 312 312 312
284 282 279 281 280 278 281 285 291 293 293 293 292 289 286 296 296 296 294 292 293 293 293 293 294 294 290 287 288 293 296 297 298 298 297 298 298 298 297 298 299 300 301 302 302 301 301 300 301 303 304 304 304 304 303 302 302 302 302 302 303 303 304 304 305 311 312 310 309 310 310 310 310 310 311 312 314 314 314 313 312 312 312 312 312 313 312
283 281 278 277 276 279 284 287 290 292 293 293 292 289 283 293 297 298 295 293 293 293 293 293 294 289 285 285 287 292 294 295 296 295 294 294 294 294 297 300 300 300 300 298 298 298 298 298 298 299 300 303 302 303 303 302 302 301 301 301 302 303 303 303 304 305 305 308 310 310 310 311 311 312 311 311 310 310 310 310 309 308 309 311 310 309 308
282 280 278 275 279 280 286 289 291 294 292 292 288 279 279 291 295 294 295 294 295 295 294 294 292 288 284 285 290 294 295 295 296 295 294 294 294 294 295 297 299 297 298 297 297 296 296 298 299 299 299 299 299 299 302 301 300 300 300 301 303 303 303 303 303 304 304 305 304 307 309 309 310 311 310 308 307 308 308 307 308 306 306 310 309 307 306
282 282 280 281 281 286 290 290 291 294 292 291 281 276 284 294 293 294 293 293 294 294 292 293 289 291 291 292 293 295 295 295 294 295 296 295 295 294 294 294 296 296 295 295 295 296 296 297 297 298 298 298 298 298 298 298 298 299 300 301 302 302 302 302 303 304 305 305 305 308 308 307 307 308 307 306 307 307 307 306 305 306 304 306 307 306 307
280 281 280 279 281 285 289 291 293 293 290 281 278 288 297 294 292 293 293 292 293 293 292 292 291 292 294 294 294 294 294 293 293 294 295 295 295 295 295 295 295 294 294 294 294 295 296 297 297 297 297 296 296 297 297 296 297 299 300 300 300 300 301 301 303 303 303 304 306 309 309 307 306 306 307 307 306 306 304 304 305 303 302 304 305 305 305
282 281 277 276 274 284 292 293 290 291 283 284 291 294 293 294 292 292 292 293 293 293 291 292 292 292 292 292 292 293 293 293 293 294 294 294 293 293 293 293 294 294 293 293 293 293 295 295 296 296 295 295 295 295 295 295 297 298 298 298 298 299 299 300 300 301 301 302 302 305 306 306 305 305 304 304 305 305 303 302 304 304 303 304 303 302 302
278 278 276 277 284 287 292 290 283 288 290 293 293 292 290 293 293 291 292 292 293 293 292 291 290 290 290 290 291 291 291 291 292 293 293 293 293 293 293 293 292 293 292 293 292 293 294 294 294 295 294 294 294 294 295 296 296 296 296 297 297 297 298 298 298 299 299 300 299 299 300 302 304 304 304 305 305 304 303 302 302 301 302 302 301 301 301
280 280 282 288 290 290 291 292 291 291 292 293 294 293 291 290 291 293 292 293 294 295 292 290 289 288 289 289 290 290 290 290 290 291 291 291 292 292 292 292 292 291 291 291 291 292 292 292 293 294 294 293 293 292 294 295 295 295 295 296 295 296 296 297 297 298 298 298 299 300 300 299 299 301 304 304 304 304 304 304 301 301 301 302 302 302 302
289 291 291 292 291 290 290 292 293 292 291 292 292 291 290 291 291 291 291 292 291 291 292 290 290 290 289 289 289 289 289 290 291 291 291 291 291 291 292 291 292 292 291 291 290 291 291 292 292 293 293 292 291 292 294 295 295 295 295 294 294 295 295 296 297 298 297 297 297 297 297 297 297 297 298 302 304 304 303 302 303 301 301 299 299 300 298
285 280 288 288 288 290 291 291 293 293 293 292 292 291 291 291 291 291 292 292 291 290 290 289 289 288 288 288 289 289 289 290 291 290 290 291 291 291 290 291 292 291 291 290 290 290 290 291 292 293 293 293 293 293 293 294 294 294 294 294 293 293 293 294 294 295 295 296 295 296 297 297 297 297 296 296 299 301 303 305 303 301 299 299 299 299 298
282 282 287 289 291 291 291 290 289 290 292 293 293 293 292 292 292 292 292 292 292 291 289 288 288 289 289 289 289 289 290 290 291 290 291 291 291 291 290 291 290 289 289 289 289 290 290 290 290 291 292 292 293 293 293 293 293 293 293 292 292 292 293 294 294 295 295 292 294 295 297 297 295 296 297 297 296 297 298 300 300 300 301 300 300 301 299
286 290 290 290 289 289 289 290 290 290 290 290 291 292 292 293 292 291 292 292 291 291 290 290 289 289 289 289 289 289 289 290 289 289 288 288 288 288 288 289 289 288 289 289 289 289 290 290 290 290 291 291 292 292 292 292 292 292 291 291 291 291 292 293 293 294 295 295 294 294 294 295 295 295 295 296 296 298 303 303 302 302 302 301 300 301 302
280 282 285 288 282 282 287 289 290 289 290 290 290 290 290 291 291 291 290 291 292 291 290 290 289 288 288 288 287 288 288 288 288 288 288 288 288 288 289 289 289 289 289 289 289 289 289 290 290 290 290 291 291 292 292 293 292 291 290 290 290 290 290 290 291 292 293 294 295 295 295 294 295 296 291 288 293 296 298 294 291 296 298 301 303 303 302
282 288 290 290 289 288 289 290 291 291 292 291 290 290 290 290 290 289 288 287 288 289 289 289 289 288 288 289 289 288 288 288 288 288 287 287 287 287 288 288 288 289 289 290 289 288 289 289 290 290 290 290 291 291 292 292 292 291 290 289 289 289 289 289 290 290 291 291 292 293 294 294 295 294 295 295 288 288 290 290 289 288 288 290 294 297 301
289 291 291 290 288 286 288 289 289 289 289 289 289 289 289 289 288 288 287 287 286 286 288 289 289 289 288 288 288 288 288 288 287 287 287 287 287 288 289 288 288 288 288 288 288 288 288 289 289 289 289 290 290 291 291 291 291 290 290 289 287 288 288 289 289 289 290 290 290 291 291 292 292 292 291 292 293 291 289 289 289 289 289 289 289 290 292
285 290 291 290 289 290 291 290 290 289 291 290 288 288 288 288 288 288 287 287 287 288 287 288 288 288 288 287 287 287 287 287 288 288 288 289 288 288 288 288 288 287 287 288 288 288 288 288 288 288 288 289 289 290 290 291 291 290 289 289 288 288 288 288 289 289 289 289 290 290 291 290 290 290 289 289 290 290 291 289 289 289 288 288 288 289 289
291 291 291 290 290 290 291 290 289 288 288 289 288 289 292 293 290 289 288 289 288 288 288 287 287 288 288 287 287 287 287 287 288 288 288 287 287 287 287 287 288 288 287 287 288 288 288 288 288 288 288 289 290 291 291 291 290 290 289 289 288 287 287 287 288 288 288 289 289 289 289 289 289 289 289 290 290 291 289 287 289 290 290 289 288 289 289
290 291 291 289 288 287 288 286 284 288 289 290 288 288 289 290 291 291 289 289 289 289 288 288 288 289 287 288 288 288 287 287 287 287 286 286 286 286 287 288 288 288 288 288 288 288 288 289 289 290 290 291 291 290 289 289 289 289 289 289 289 287 287 287 287 287 288 288 288 288 288 288 289 290 290 289 289 289 289 289 290 289 287 287 288 288 287
288 288 289 285 284 286 287 288 288 289 289 288 289 289 288 288 287 287 287 288 287 287 288 289 290 290 289 288 287 286 286 285 286 284 284 285 286 287 288 287 288 288 289 289 289 290 290 289 288 288 288 289 290 289 289 289 289 289 289 289 289 289 289 288 288 287 287 288 288 288 287 288 289 289 289 289 289 290 289 289 290 289 287 287 286 288 288
288 288 288 289 289 289 289 289 289 289 288 289 289 289 289 287 286 287 287 287 287 287 287 289 289 288 287 286 286 285 285 285 283 283 283 284 286 287 287 287 288 288 287 288 289 288 288 288 288 287 288 289 289 289 289 290 289 288 287 287 286 285 284 286 288 288 287 287 287 287 286 285 287 289 290 290 290 290 289 288 288 288 288 287 287 288 288
289 289 288 287 287 288 288 286 287 288 290 289 288 288 288 286 286 285 286 286 287 287 289 289 288 287 288 287 286 286 284 283 282 282 283 286 286 287 287 287 287 287 288 288 288 288 287 287 286 287 288 290 291 291 291 290 290 290 289 288 287 286 285 286 288 289 288 286 287 286 285 285 287 288 289 290 291 290 288 287 285 286 286 286 288 285 285
290 291 291 290 290 288 287 288 287 288 289 289 288 287 287 286 286 285 286 287 287 288 289 287 286 286 287 287 287 285 283 282 282 283 285 285 286 286 286 286 285 284 286 287 288 287 287 287 288 288 290 291 291 291 290 290 289 289 288 287 287 286 286 286 286 288 288 287 286 286 286 285 286 286 286 286 288 288 289 287 287 286 287 286 286 285 284
289 290 291 289 289 289 288 289 288 288 287 287 287 286 285 285 285 285 285 286 287 288 287 287 286 287 287 287 286 284 282 281 281 283 284 284 284 284 284 284 284 284 285 286 286 287 287 287 288 289 290 290 291 290 289 287 286 285 285 286 286 284 286 286 287 287 287 286 286 286 285 286 285 286 286 287 287 287 287 286 285 286 286 286 285 285 284
287 286 285 287 287 286 287 288 288 286 285 286 285 287 287 287 287 286 286 287 287 287 287 287 287 287 286 285 284 283 281 279 280 282 281 281 282 282 282 282 283 283 282 283 285 287 288 288 287 288 289 290 291 291 290 287 286 284 283 284 284 285 286 286 287 288 288 287 286 287 288 287 287 288 288 287 288 287 288 287 287 287 285 285 284 284 285
287 286 287 288 287 286 286 286 287 286 286 287 287 287 286 287 286 286 287 287 288 288 288 288 287 285 285 284 282 280 278 278 278 279 279 280 280 280 281 281 281 282 283 285 286 287 288 288 289 289 290 290 291 291 292 291 289 288 288 287 286 285 286 287 289 289 289 289 290 289 289 287 288 287 287 287 287 288 288 287 285 285 286 285 285 285 286
290 289 290 290 289 288 287 287 285 285 286 286 286 287 287 287 287 286 287 287 288 289 289 288 286 284 282 282 280 278 276 276 276 277 277 278 280 279 279 280 282 284 284 285 287 286 287 288 289 290 289 289 290 291 292 292 291 290 290 290 289 289 289 289 289 290 290 291 290 289 288 287 287 286 287 287 287 286 285 285 285 285 285 285 284 285 285
291 290 289 289 289 288 287 286 287 287 287 286 286 286 286 287 288 289 288 288 287 288 288 287 284 282 281 280 279 278 277 276 275 275 276 277 278 278 279 280 282 283 285 286 286 287 287 288 287 286 286 287 289 292 293 291 290 290 291 290 290 290 290 290 290 291 291 290 287 286 286 286 286 286 285 285 285 285 284 284 284 284 284 284 283 284 285
292 291 289 288 288 288 287 288 287 287 286 286 285 285 286 287 288 289 290 288 287 287 286 286 283 281 280 280 281 281 279 279 279 278 277 274 276 279 279 281 283 284 285 286 286 286 286 287 286 286 288 291 292 293 291 288 290 291 291 291 291 291 291 291 292 292 292 288 287 286 284 284 284 284 284 284 284 285 285 285 285 284 284 284 284 284 284
291 291 290 288 288 288 288 288 288 287 287 287 287 287 287 287 288 289 289 287 287 287 286 285 284 284 284 283 283 283 282 280 279 278 278 277 278 279 279 281 284 285 286 286 286 286 285 286 286 287 291 291 292 292 292 289 288 290 291 292 291 292 291 291 290 290 289 288 286 286 285 285 284 284 284 284 284 285 286 286 286 286 286 285 285 285 285
289 289 288 289 288 287 288 287 287 287 287 287 286 288 289 290 289 288 287 286 286 287 286 286 286 285 284 285 284 283 282 280 280 280 278 278 278 279 280 282 284 285 286 286 286 284 284 285 285 289 290 292 293 293 292 289 288 292 292 292 292 291 290 290 290 288 288 287 287 286 285 286 286 284 284 285 286 286 286 286 286 286 286 286 286 286 286
289 289 289 289 288 288 287 287 287 288 288 288 287 286 288 288 286 286 285 285 286 287 287 287 286 284 283 283 285 285 283 282 281 280 279 278 278 279 280 281 283 285 286 285 285 284 284 285 286 288 290 290 292 291 290 289 289 291 291 291 291 290 290 290 290 290 288 288 286 285 284 284 285 285 285 286 286 285 285 285 286 286 286 286 286 286 286
289 289 289 288 288 287 288 287 287 287 288 288 287 288 289 288 287 286 287 286 288 288 286 286 283 282 282 283 284 285 284 284 282 281 279 279 278 280 281 281 283 284 285 286 286 286 286 286 286 286 286 288 290 288 288 289 293 292 292 291 290 290 290 290 290 289 289 288 287 284 283 284 284 286 286 287 286 286 285 286 286 285 286 286 286 287 286
290 291 291 290 289 287 288 288 288 287 287 287 288 289 289 288 287 287 287 287 287 286 286 286 284 282 282 282 283 284 285 284 284 283 283 282 282 281 281 283 282 284 285 285 284 284 283 284 286 286 284 285 286 286 285 288 292 292 291 291 290 290 290 289 289 289 289 288 287 285 285 285 285 286 286 287 287 287 288 288 288 288 287 287 287 287 287
290 290 290 290 290 290 290 288 287 287 286 288 288 288 287 288 288 288 288 286 287 287 286 284 282 284 283 282 282 283 283 285 285 285 285 285 285 285 285 284 285 285 286 284 284 285 284 284 285 284 284 285 285 285 285 290 292 291 291 290 290 289 289 289 289 287 287 288 287 285 285 286 287 287 287 287 287 287 287 287 287 287 288 288 288 287 287
289 289 290 290 289 290 290 291 289 288 287 287 288 289 288 288 288 288 288 287 287 286 285 285 284 284 284 284 283 282 281 282 282 282 284 284 285 286 287 285 284 285 285 284 284 286 286 286 283 283 285 285 285 285 284 286 291 291 291 290 289 289 289 289 288 288 288 287 287 287 287 286 286 286 286 286 287 287 287 287 287 286 286 286 286 286 286
290 290 290 290 291 291 291 292 291 289 288 288 289 289 289 288 288 289 289 287 287 286 285 285 286 286 286 285 283 282 282 283 281 280 283 281 282 283 286 286 286 284 283 284 283 285 285 283 283 285 285 285 284 284 283 284 288 290 290 290 288 286 287 287 286 286 286 287 286 286 286 286 286 286 286 285 285 285 285 285 285 285 285 285 285 285 285
290 290 290 289 290 289 290 291 292 291 290 289 288 288 289 289 289 289 289 289 288 286 286 286 286 286 286 285 285 284 284 284 283 283 284 286 283 282 285 285 284 285 285 284 285 284 283 284 285 285 285 284 284 283 283 285 286 287 289 288 287 285 286 286 286 286 286 286 286 285 285 286 285 284 284 284 284 284 284 284 284 283 283 283 284 284 284
290 290 290 290 289 290 291 290 290 290 289 289 286 287 288 289 289 289 289 290 289 289 288 287 287 288 288 287 285 284 283 283 284 283 284 283 283 283 285 285 285 285 285 284 284 283 283 283 285 285 284 284 284 284 285 286 286 286 287 287 285 284 284 284 285 287 286 285 285 284 285 285 285 286 285 285 284 284 283 283 283 282 282 283 283 283 284
290 289 289 290 290 290 290 290 289 289 288 288 288 289 288 289 290 289 290 290 290 290 288 288 288 288 288 287 287 286 285 282 280 282 283 283 283 283 282 281 282 284 284 285 285 285 284 284 284 284 284 284 283 284 285 286 285 284 284 285 285 284 283 285 285 285 285 284 284 284 283 282 282 283 285 284 284 283 283 283 282 282 282 282 282 282 283
290 289 290 290 290 289 288 288 287 287 288 290 289 289 290 289 289 289 289 290 290 290 289 289 289 289 289 288 288 286 287 284 282 282 283 284 283 283 283 284 285 285 283 282 284 283 284 284 284 285 285 285 283 284 284 283 284 285 284 282 283 283 283 284 283 282 283 283 283 284 283 283 282 282 282 283 283 283 283 282 282 281 281 281 282 282 282
290 290 289 289 288 288 288 286 286 286 288 288 288 290 291 290 286 287 287 287 290 289 288 288 288 289 288 288 287 287 286 285 285 285 285 286 285 283 283 283 283 284 284 283 285 284 285 285 285 285 285 283 284 284 284 283 283 283 283 283 283 282 283 284 285 285 283 283 283 283 283 282 281 282 282 281 281 282 282 282 280 283 284 283 281 282 282
288 288 288 288 288 288 289 289 288 288 287 288 289 287 287 287 287 287 287 288 290 289 288 289 289 287 288 288 287 286 287 286 285 285 283 283 284 284 284 283 283 284 283 282 281 283 282 282 282 283 284 283 283 284 283 282 282 282 283 282 282 283 282 282 283 282 283 283 283 282 283 282 281 281 281 281 282 282 282 282 282 281 281 281 281 281 280
291 289 290 288 289 289 290 290 289 288 289 288 288 288 287 287 287 287 286 287 287 287 287 287 286 288 289 288 287 287 286 286 284 283 284 284 284 282 283 284 282 282 282 282 281 282 282 283 284 285 286 284 283 282 285 285 282 282 282 283 283 282 282 282 283 282 282 283 282 282 282 282 282 281 281 281 282 282 282 281 281 281 280 280 280 280 279
Wind_Speed
2 4 7 6 5 5 6 8 9 12 11 12 12 7 4 3 2 7 4 2 6 5 8 10 10 10 10 11 11 9 9 9 10 11 12 11 10 10 9 7 6 4 4 3 3 3 6 7 9 8 6 5 5 4 5 4 3 4 4 6 6 7 8 8 7 7 6 6 5 5 7 5 3 1 1 2 4 3 3 2 6 4 5 9 8 8 6
2 6 6 6 6 3 4 7 11 12 12 10 7 7 10 11 9 9 10 11 7 7 10 10 11 11 12 11 10 10 14 13 13 14 13 13 12 13 13 13 13 13 12 12 13 11 9 8 8 6 4 6 7 6 5 3 3 3 4 5 7 8 9 8 7 6 8 7 7 7 7 6 5 5 6 6 5 5 4 2 3 6 8 7 8 8 7
8 11 4 6 4 4 4 6 11 10 10 11 6 4 7 7 10 8 10 12 8 5 8 10 11 10 10 14 13 10 11 12 14 14 13 12 12 11 11 12 12 12 13 13 14 15 14 12 10 6 5 5 5 7 5 4 1 2 4 5 6 8 9 7 6 5 5 5 5 6 7 7 7 7 6 6 6 7 2 2 4 7 9 8 7 7 7
1 3 3 9 10 10 8 6 5 7 6 7 1 4 1 3 4 9 11 8 6 8 10 11 11 12 13 13 10 9 10 12 14 13 12 12 12 11 11 10 10 12 12 13 13 12 13 13 12 12 9 3 4 4 6 5 5 5 4 4 5 5 7 8 7 6 7 6 5 2 4 6 4 4 4 5 7 3 1 3 4 4 7 7 7 7 7
4 3 2 9 7 6 6 8 10 1 5 7 5 3 5 3 1 5 5 6 5 8 10 12 9 10 11 11 10 9 11 11 12 12 12 12 11 10 10 11 10 10 10 10 11 11 11 11 11 11 11 11 5 2 5 3 4 4 5 5 6 7 6 8 7 7 7 7 6 5 3 4 4 4 3 4 4 4 3 4 5 5 4 6 5 5 7
2 5 5 2 4 4 3 6 13 3 7 11 9 4 7 5 6 4 6 8 8 9 10 11 11 11 9 9 8 6 7 9 10 9 11 12 10 8 8 8 8 8 8 9 9 9 9 10 9 9 11 10 11 7 2 3 4 3 3 4 6 6 5 6 6 6 6 7 7 6 4 4 3 3 2 3 3 1 3 3 5 4 3 4 4 4 5
1 2 9 6 2 2 2 8 13 11 10 9 10 5 6 11 15 15 13 12 10 9 10 11 12 12 12 11 11 9 7 8 9 11 10 9 11 7 6 7 7 8 9 10 12 13 12 9 8 12 13 11 10 12 12 10 5 2 2 3 4 4 4 5 7 7 8 8 8 7 6 5 4 4 4 5 3 2 1 4 6 6 2 0 3 4 5
3 2 2 2 2 1 4 5 11 12 9 8 8 8 7 7 8 15 14 12 13 13 12 11 10 12 12 11 10 10 9 9 9 10 9 9 11 9 5 7 5 7 10 11 11 10 8 8 9 9 10 9 10 10 10 10 11 11 10 8 5 3 2 1 3 6 6 7 7 7 7 7 7 6 6 5 5 3 2 4 5 5 5 3 3 4 5
3 3 4 3 1 1 7 4 8 9 4 5 2 4 3 5 6 11 12 12 12 12 12 12 11 9 10 11 7 5 7 8 10 11 9 7 7 8 8 7 7 5 7 10 8 9 11 11 10 9 7 7 9 9 9 9 10 9 10 10 9 9 7 2 1 1 2 3 3 6 6 6 6 4 5 5 4 6 6 5 6 6 6 5 4 5 5
2 5 3 2 1 2 0 1 6 5 4 4 6 1 3 5 4 8 11 13 13 13 13 12 12 8 14 10 5 3 4 5 7 7 7 5 4 4 3 3 3 4 6 7 5 7 8 10 10 6 7 9 9 9 9 10 11 10 10 10 8 8 8 9 3 3 3 3 4 3 0 4 3 2 3 3 4 5 6 7 7 7 7 7 5 5 6
2 2 4 2 2 2 1 6 7 7 7 6 5 4 7 5 7 1 7 10 11 14 14 14 8 9 11 8 5 6 8 9 10 11 10 9 9 8 3 5 6 5 6 8 8 10 12 12 10 10 9 8 9 8 9 10 11 11 11 11 11 10 9 5 4 4 3 4 4 3 6 3 4 5 4 4 3 2 3 4 4 4 6 7 5 4 4
4 2 3 2 1 1 3 6 6 5 4 7 2 4 2 4 6 11 8 6 5 4 7 7 5 10 11 7 6 9 11 10 9 10 11 11 11 11 11 7 5 9 9 10 11 11 11 10 10 11 9 9 11 10 9 10 12 11 11 10 9 9 9 8 8 8 5 5 2 5 6 1 3 6 5 4 4 4 4 3 5 4 6 6 5 5 4
4 6 3 3 1 1 3 5 7 2 4 1 7 5 1 2 7 8 9 10 9 10 12 10 10 8 9 9 9 9 9 10 10 10 10 10 9 10 11 11 10 10 11 11 10 9 8 9 9 9 9 9 10 9 9 11 11 9 9 10 10 10 10 10 10 9 8 6 6 4 3 4 1 2 1 2 4 5 5 5 4 5 5 6 7 6 6
2 2 4 2 2 2 5 9 5 2 3 4 7 3 3 4 9 9 11 14 12 13 13 11 10 10 11 11 11 11 10 9 7 7 8 9 10 9 10 12 11 9 10 10 10 10 9 10 10 9 9 9 8 9 10 11 9 8 9 9 10 10 10 11 10 11 10 10 8 5 4 4 4 3 1 2 2 4 3 4 6 3 3 6 7 7 6
2 3 4 1 2 3 6 6 4 7 6 4 4 4 8 7 8 10 11 11 11 11 13 12 11 11 11 10 10 10 10 9 7 8 8 8 8 8 9 9 9 8 7 8 8 8 9 9 10 10 10 10 8 7 8 7 8 9 9 8 8 8 9 9 9 9 9 9 8 7 9 9 4 3 3 4 2 1 4 3 3 2 5 6 6 6 5
2 2 3 3 1 3 7 7 6 4 7 7 5 6 7 8 7 8 8 10 9 10 10 10 10 10 9 9 9 9 9 9 8 8 8 8 7 7 7 6 5 6 6 6 6 6 7 8 8 8 9 8 7 7 6 6 7 6 6 6 6 6 6 6 8 8 8 8 8 6 7 8 10 7 5 3 1 3 3 1 1 2 1 1 3 2 5
2 2 4 2 2 5 5 8 10 10 9 7 6 8 7 7 6 5 8 8 8 8 10 10 8 8 8 8 7 7 6 7 6 5 5 4 4 5 5 5 4 4 5 5 6 5 5 6 6 7 6 6 7 6 6 6 7 6 6 6 5 5 5 5 5 7 8 7 7 7 7 6 6 8 8 4 3 4 2 7 3 3 3 4 5 4 3
10 9 5 4 5 8 9 9 8 9 8 8 9 9 8 7 7 6 7 7 9 9 7 9 7 6 5 5 5 5 5 4 4 3 3 4 4 4 4 2 1 2 3 3 4 4 4 3 3 3 3 4 5 5 5 5 5 6 5 5 6 6 5 5 5 4 5 7 8 8 7 6 6 4 4 5 8 6 2 1 4 6 3 2 2 4 5
5 5 4 7 7 7 9 9 8 8 7 7 7 8 8 7 6 7 7 7 6 6 7 7 6 4 3 3 3 4 3 4 3 3 2 1 2 2 3 4 2 1 3 3 2 2 2 2 1 2 1 1 2 3 4 4 4 4 5 5 5 5 5 5 5 5 4 5 6 8 9 8 8 7 7 4 2 2 6 8 8 7 2 2 3 4 6
5 5 5 5 5 7 6 7 7 8 7 7 6 6 6 5 5 4 4 4 5 4 4 4 5 4 2 2 0 1 3 4 3 2 1 1 1 1 2 2 3 4 4 3 3 3 4 4 4 3 2 3 3 4 4 4 4 3 4 4 4 4 6 6 6 4 5 5 6 4 6 7 7 7 9 7 4 4 5 5 7 7 8 7 6 7 6
6 7 7 8 9 8 6 6 6 6 5 4 5 4 4 4 4 4 5 4 3 3 4 1 2 4 4 5 5 6 6 6 5 6 4 4 4 4 4 2 3 3 3 4 4 4 6 5 5 5 5 6 7 7 6 5 5 5 5 5 5 4 4 5 6 7 6 6 6 5 4 4 6 6 8 8 8 5 4 6 6 7 6 6 6 6 7
3 5 8 7 7 5 6 7 6 5 5 7 6 5 6 6 6 6 5 3 3 6 5 5 5 4 4 3 4 6 5 4 4 6 7 7 6 5 4 3 3 4 5 4 5 5 5 5 5 5 5 6 6 8 9 9 9 8 7 7 7 7 7 6 6 7 6 6 6 7 7 5 5 5 4 6 2 0 4 9 9 4 5 6 9 8 8
4 5 8 9 7 6 4 5 4 4 4 5 4 4 5 8 9 8 8 8 6 5 4 4 6 5 7 7 6 5 4 4 5 6 6 5 4 4 4 5 7 8 8 7 5 6 4 4 5 5 5 6 7 7 7 6 7 7 6 6 6 6 7 7 8 8 8 8 7 6 6 7 6 5 7 1 5 6 4 5 6 7 8 9 5 13 13
10 9 10 8 5 5 7 7 7 9 8 8 8 8 8 7 6 5 5 4 5 5 7 8 7 9 7 5 5 2 2 6 7 5 4 3 4 5 7 6 5 6 6 5 5 4 4 4 4 5 5 5 5 5 5 5 5 5 6 6 6 6 6 6 7 7 7 8 8 7 6 5 5 6 6 8 6 5 7 8 8 10 9 7 7 7 9
6 8 10 7 8 9 7 6 7 7 7 7 6 5 5 5 4 2 3 1 3 7 6 6 7 6 7 6 5 6 5 5 4 3 3 6 7 5 4 6 5 4 4 4 4 4 4 4 5 4 5 5 4 5 5 6 7 6 6 5 5 5 6 7 7 8 7 8 8 8 6 6 7 5 6 6 8 8 3 5 8 7 7 9 9 8 7
4 6 7 8 9 9 7 8 8 6 4 5 5 4 1 2 3 4 1 1 3 6 7 4 4 4 5 5 5 4 5 5 5 5 7 5 5 5 5 5 4 4 4 4 4 4 4 5 4 3 4 4 4 6 7 7 7 7 7 6 5 4 4 5 6 6 7 7 7 9 8 8 7 8 5 4 6 8 5 4 3 3 7 11 11 8 8
7 6 5 11 8 5 5 7 4 4 5 6 4 2 1 3 3 1 2 5 5 5 5 4 0 0 1 1 3 5 5 5 6 6 5 5 5 4 4 4 5 5 4 4 5 5 4 4 4 4 5 5 6 5 5 5 5 5 5 5 5 7 10 8 5 6 6 5 7 6 7 7 8 8 8 6 4 7 4 3 4 3 1 5 8 9 6
6 6 6 7 4 4 4 4 3 3 4 4 1 2 4 5 4 4 5 7 7 4 4 1 1 1 4 4 4 5 4 4 4 4 5 4 3 4 5 4 4 4 4 4 4 4 6 5 5 5 5 4 4 4 4 4 4 4 4 4 5 4 4 6 6 5 4 6 6 6 6 6 6 6 7 8 7 7 4 2 3 6 3 2 1 4 10
6 7 5 5 5 4 4 2 2 3 4 2 6 8 7 6 5 5 4 4 4 3 3 2 2 5 5 4 4 3 4 5 5 5 4 4 4 4 4 4 5 4 4 4 3 5 5 5 5 5 5 4 4 4 4 4 4 4 4 3 4 3 4 4 5 6 5 5 4 5 5 6 5 6 6 7 7 7 3 2 5 3 5 3 2 3 6
6 5 4 4 4 2 0 1 3 2 0 2 9 7 8 7 6 4 3 4 3 1 2 3 5 4 4 2 3 6 6 4 4 4 4 4 5 5 5 5 4 4 4 5 5 5 5 5 5 5 5 5 5 5 5 4 4 4 4 3 3 4 3 4 4 5 5 5 6 7 7 5 5 5 5 5 7 8 4 2 3 5 4 2 1 3 3
6 6 6 4 4 3 2 1 2 0 2 3 9 8 6 7 6 3 1 2 3 3 2 4 3 2 2 4 6 5 5 4 3 3 4 4 5 5 5 5 4 4 4 4 4 4 4 5 5 6 5 6 7 6 4 2 2 3 3 3 3 5 7 7 6 5 5 6 6 6 6 6 5 3 4 5 6 6 6 2 1 4 4 4 4 4 3
7 6 6 3 2 1 2 1 3 4 6 4 6 6 6 7 6 4 4 1 3 0 3 3 3 1 3 6 5 5 4 3 3 4 4 4 4 4 4 4 4 4 4 4 4 3 4 4 5 5 5 6 6 7 3 3 1 2 3 4 4 4 5 8 6 6 6 5 7 6 6 6 4 4 5 6 6 6 4 5 2 5 4 6 4 2 2
6 3 3 1 1 4 4 5 5 5 4 7 5 5 6 5 6 4 2 0 2 1 2 1 2 4 5 4 5 4 3 2 4 4 3 3 3 3 3 3 3 3 3 3 3 4 4 3 4 5 5 5 6 7 5 2 1 2 3 4 5 5 5 5 6 6 5 5 5 5 4 4 5 5 6 6 6 5 2 5 8 7 6 5 4 3 1
5 4 4 5 3 2 3 4 5 4 4 3 5 6 4 6 5 4 0 2 4 3 4 2 7 6 5 5 4 4 3 3 2 1 0 0 1 1 3 3 4 3 3 3 4 2 3 3 4 5 4 5 6 6 6 5 3 2 2 3 5 5 5 5 5 5 5 6 5 4 6 5 7 7 6 6 7 5 6 6 6 6 6 6 6 5 6
7 5 6 5 5 6 4 4 3 4 6 1 4 4 5 5 4 3 4 4 2 3 3 7 5 5 5 5 4 4 3 2 1 2 2 2 0 1 3 3 3 3 3 2 1 2 3 4 5 5 6 6 6 5 5 4 4 3 3 3 3 4 4 4 5 4 4 4 5 6 6 6 5 5 4 4 4 5 6 6 6 6 6 6 5 5 6
6 5 5 5 5 5 5 4 4 2 4 5 5 5 4 4 4 4 4 3 3 4 2 7 5 5 5 5 5 4 4 4 3 3 3 3 2 2 2 2 3 2 2 1 1 1 3 4 7 8 6 5 5 4 3 3 4 4 4 4 5 5 5 4 4 5 2 3 5 5 4 5 5 5 5 4 4 6 6 6 6 6 6 6 5 6 5
6 5 4 4 4 4 2 2 3 3 3 4 5 4 5 3 2 3 3 4 4 6 3 5 4 5 5 6 6 5 4 5 5 4 5 4 3 2 3 3 3 2 1 1 1 1 3 4 7 10 6 3 3 2 3 3 4 5 5 4 4 4 3 3 1 0 4 5 5 5 4 5 4 5 5 5 5 5 6 6 6 6 6 5 5 6 6
4 4 4 4 4 3 3 3 3 3 2 2 3 2 3 4 3 3 3 1 1 1 3 6 5 6 6 4 4 5 4 4 4 4 4 4 3 1 3 3 3 1 0 2 1 2 3 5 9 6 4 2 3 3 4 7 6 4 4 3 4 2 4 7 6 6 5 5 5 5 5 5 5 5 5 5 5 5 5 6 6 6 6 6 6 6 6
3 4 2 2 3 3 4 4 3 2 2 2 3 2 1 1 1 1 1 0 3 1 3 1 1 1 3 4 5 4 5 5 5 5 5 4 3 3 4 3 3 3 3 1 1 3 4 6 4 4 3 3 4 3 4 6 7 4 4 5 5 5 5 5 6 6 6 6 5 4 4 4 5 5 5 5 5 5 5 6 6 6 6 6 6 6 6
0 1 1 3 1 1 3 1 1 1 4 3 5 3 4 4 3 1 1 3 3 4 2 1 0 1 2 3 6 6 6 6 6 6 6 4 3 3 3 3 4 4 4 4 3 3 5 7 4 3 3 4 3 4 4 5 4 2 3 2 3 4 4 5 5 5 4 4 3 3 4 5 5 5 5 5 5 5 4 5 6 6 7 6 6 6 7
1 1 3 1 3 2 4 2 3 4 4 4 4 5 4 4 2 1 0 1 2 0 2 2 4 2 1 1 2 7 6 6 6 7 4 4 4 4 4 4 5 4 4 4 4 4 4 3 1 1 2 4 3 4 4 4 2 1 2 2 2 4 5 4 5 5 5 4 2 2 3 4 5 5 5 5 4 4 4 5 6 6 6 6 6 6 6
2 3 4 3 4 4 3 2 2 2 1 5 6 5 4 4 2 0 1 2 1 1 2 2 6 2 1 1 2 2 7 7 7 6 6 7 7 6 5 6 3 5 5 4 4 4 4 2 1 2 2 3 4 7 6 3 1 2 2 3 2 2 4 5 4 4 3 2 2 3 2 4 4 4 4 4 4 3 2 3 5 5 5 5 5 5 5
1 2 2 2 2 1 1 1 3 4 4 4 4 5 4 4 3 1 2 4 4 1 0 3 4 4 4 3 4 4 3 8 8 7 5 6 5 6 8 6 5 4 5 2 4 4 4 3 3 2 2 2 3 6 7 3 2 2 2 5 5 4 4 5 5 4 3 3 3 3 2 2 4 4 5 5 5 5 5 5 5 5 5 5 5 5 5
3 1 1 2 2 2 1 5 5 4 4 4 4 4 5 4 5 5 4 4 4 4 4 2 4 4 4 4 3 2 3 1 2 6 6 3 3 3 4 6 5 5 4 2 2 1 5 4 2 2 3 4 5 6 4 5 1 4 4 5 4 5 4 4 5 5 4 3 3 4 3 3 4 4 5 4 5 5 5 5 5 5 5 5 5 5 5
2 4 5 4 3 4 3 2 7 9 4 3 4 2 4 5 5 5 5 5 4 3 4 3 1 1 1 1 2 1 1 1 2 6 8 4 4 2 2 6 5 4 2 1 2 2 4 3 2 2 2 3 4 5 4 5 2 5 5 4 4 4 5 5 4 3 3 4 3 3 4 4 4 4 3 2 3 3 4 4 5 5 5 5 5 5 5
0 2 0 5 6 5 6 3 1 6 5 3 4 4 3 4 4 4 5 3 3 4 5 5 4 4 4 3 3 3 3 2 2 5 8 9 7 5 4 6 4 4 1 2 1 3 2 4 2 1 2 3 4 5 5 5 3 5 6 6 4 4 6 5 4 4 5 5 5 4 5 4 4 3 3 4 6 6 6 7 6 5 5 6 5 5 5
1 0 1 2 1 4 4 5 5 3 8 6 3 4 3 2 3 3 3 4 5 5 5 5 6 5 5 4 1 1 0 1 1 4 5 4 6 6 6 6 5 2 1 1 2 2 3 1 2 2 4 5 5 4 4 5 3 5 6 5 4 5 4 5 5 5 4 4 4 4 4 5 4 4 5 5 6 5 5 6 6 5 5 5 5 6 5
1 1 1 0 1 0 2 2 3 5 7 5 3 3 2 2 2 2 3 3 3 3 3 4 4 5 5 5 5 4 2 5 5 1 2 6 6 5 6 4 4 4 4 2 2 3 4 4 3 3 4 6 4 4 5 1 2 3 3 4 5 5 5 4 4 4 5 5 5 5 6 4 3 4 5 5 5 5 5 5 5 4 4 5 5 6 5
2 2 2 1 1 1 2 2 3 4 3 1 1 2 2 2 4 4 4 4 4 3 4 4 4 4 6 7 7 5 4 4 4 5 6 6 7 6 6 6 7 7 4 3 3 3 4 5 4 3 4 5 5 2 2 3 6 6 5 5 6 4 4 5 4 4 3 3 4 4 4 4 4 5 4 4 5 6 5 4 4 4 4 5 5 3 3
1 1 1 1 2 3 2 2 5 5 4 3 2 2 1 2 3 6 6 6 6 4 3 3 4 5 5 6 7 7 6 6 6 6 8 8 7 6 7 6 5 6 6 3 3 4 5 6 3 2 3 3 3 2 4 4 5 5 6 4 4 4 4 4 5 5 4 4 4 5 6 5 4 5 5 5 5 5 5 4 3 5 6 5 5 5 5
3 4 3 3 4 4 3 3 3 2 3 2 2 4 4 3 1 1 3 3 1 3 3 7 8 5 2 6 6 5 6 7 8 8 8 8 8 7 8 6 6 6 5 4 3 5 5 4 4 3 3 1 1 2 4 3 4 3 4 5 4 3 3 3 4 5 6 6 6 6 4 4 5 6 6 6 6 6 6 7 6 6 6 6 6 6 6
5 4 4 3 3 4 4 4 4 4 3 4 3 2 2 2 1 0 2 5 2 1 3 3 5 6 3 2 2 1 6 8 7 7 7 7 7 7 7 7 6 6 6 4 4 3 5 5 4 4 3 0 0 2 4 4 3 2 1 2 4 4 4 4 4 4 4 6 6 6 6 6 6 6 6 5 6 7 6 6 6 6 6 6 6 6 6
Wind_Direction
334 97 114 95 74 88 109 101 87 75 51 33 40 12 343 99 135 165 181 111 100 102 87 85 73 61 52 56 50 51 63 65 67 66 64 52 38 35 41 45 41 53 64 43 20 48 63 60 67 86 98 104 87 64 50 43 48 58 70 90 78 77 83 92 92 82 72 65 81 89 88 78 38 57 292 319 2 353 7 204 174 155 110 117 111 111 107
338 103 128 103 107 108 80 84 88 95 84 63 43 37 27 69 77 94 99 80 68 79 69 74 84 84 76 65 55 54 60 62 64 62 54 50 45 44 47 50 47 43 41 36 34 29 33 44 48 60 95 101 97 92 83 54 55 50 70 77 87 78 67 74 79 87 93 101 113 112 108 94 76 40 14 352 334 345 10 342 104 104 106 109 119 123 121
342 321 304 135 122 118 114 100 97 94 90 80 54 43 27 30 61 66 92 98 91 70 106 96 85 79 77 67 56 52 58 60 64 63 57 50 45 41 44 45 45 47 46 44 44 41 32 25 28 23 41 73 103 124 140 138 149 122 99 87 90 95 94 93 96 97 101 122 139 148 157 134 139 150 173 181 200 238 287 144 131 124 125 129 131 133 126
249 289 338 74 61 64 71 45 62 103 97 78 45 71 21 49 110 110 89 70 83 83 69 83 82 76 71 75 76 66 65 64 62 61 61 56 47 43 40 40 43 46 46 45 43 43 41 35 30 25 10 5 96 120 132 136 130 123 113 104 98 110 124 121 130 133 130 134 138 163 156 144 158 149 171 194 186 215 197 138 126 129 128 133 132 130 127
14 41 11 74 70 49 30 6 329 79 85 113 114 93 57 27 101 90 84 117 121 99 93 83 66 76 85 85 82 83 73 67 69 67 62 59 48 43 39 41 41 40 44 47 46 42 41 32 26 20 21 22 356 127 121 128 115 108 112 116 109 110 127 141 145 142 135 135 142 154 127 110 129 154 193 192 174 175 177 158 135 126 125 125 139 141 134
329 4 22 28 60 57 33 318 300 172 143 137 122 146 142 121 74 64 83 96 103 99 96 96 100 90 84 86 84 83 99 96 85 75 68 65 57 39 34 35 32 34 37 44 45 46 46 40 29 27 31 23 26 16 43 100 111 130 118 115 114 120 124 120 121 131 134 136 145 152 156 165 145 137 140 214 194 181 133 107 98 85 93 122 131 127 121
138 16 46 34 53 113 277 329 9 72 93 92 97 95 88 118 115 101 92 98 97 95 91 93 91 89 86 83 85 83 82 89 91 89 82 73 71 44 34 29 20 27 34 37 34 31 27 27 28 32 29 21 24 39 36 35 25 44 51 64 72 99 126 124 120 127 138 141 141 145 149 150 142 142 175 196 166 124 143 127 107 96 68 339 143 123 123
111 54 82 140 196 185 359 313 22 14 56 48 76 68 51 64 92 108 108 109 107 103 99 93 92 95 95 83 74 81 84 88 97 94 92 91 83 73 38 71 46 47 47 44 38 30 16 23 34 39 35 27 35 35 40 42 43 44 44 43 49 41 25 53 130 147 141 142 145 152 157 154 156 171 179 170 146 158 134 137 134 148 175 181 188 147 140
134 142 83 89 115 38 6 356 12 6 22 350 7 130 62 73 81 101 112 112 113 112 113 117 117 116 102 89 78 79 94 93 90 96 100 99 99 111 104 80 75 73 77 64 45 36 29 19 24 28 23 35 42 39 41 42 45 43 42 39 29 26 23 41 95 23 61 98 139 151 155 147 145 159 168 179 177 164 151 163 164 161 171 178 192 152 140
118 120 102 100 52 183 11 331 306 347 5 345 333 114 65 8 75 115 124 129 131 127 129 127 126 120 88 79 90 110 105 99 102 103 106 101 97 93 97 115 124 76 64 73 62 54 46 34 24 11 25 27 35 38 38 37 39 37 34 29 24 29 31 14 9 123 125 71 30 345 229 143 154 171 182 180 177 171 158 168 168 166 160 166 174 168 157
114 124 131 159 159 105 231 293 303 325 343 348 318 87 58 347 341 29 135 137 143 144 144 146 145 98 92 109 114 108 96 84 79 78 71 64 54 52 80 84 62 41 43 55 52 45 38 31 17 19 23 25 31 32 35 41 38 30 24 18 13 13 9 25 51 48 44 81 104 65 316 207 153 159 179 182 187 150 165 164 174 156 153 156 169 169 161
27 50 71 85 50 113 281 299 301 321 340 333 54 85 60 304 33 52 70 85 109 133 148 143 86 106 120 121 103 90 84 81 74 72 72 64 54 49 39 28 44 51 44 42 41 40 36 22 15 15 20 31 34 30 27 34 36 25 14 8 6 13 12 14 14 19 51 72 92 173 211 190 152 160 179 167 164 174 179 180 181 165 157 165 164 178 156
95 102 88 94 109 341 290 288 294 333 156 358 52 62 134 310 49 50 60 62 64 80 83 88 88 63 88 97 93 88 84 77 69 69 68 67 62 53 42 33 29 40 36 35 32 33 28 20 18 15 21 32 29 25 26 30 24 14 5 6 10 10 6 8 4 9 10 16 21 27 72 108 119 62 271 193 187 174 186 185 196 177 153 164 165 175 166
77 89 79 99 73 241 251 290 283 269 130 70 121 215 270 55 59 45 56 63 55 65 66 76 85 89 81 77 73 73 73 75 71 64 62 63 54 46 44 35 34 35 32 28 23 18 15 17 15 14 18 29 28 20 20 16 7 1 9 9 7 8 8 359 360 0 1 358 357 351 7 46 45 48 64 135 159 248 141 168 186 216 143 160 170 169 169
45 60 96 85 49 337 326 302 3 7 92 111 143 120 63 62 67 63 57 61 59 62 72 65 70 68 64 66 67 65 60 59 60 61 60 63 68 60 47 37 27 34 34 25 21 19 16 16 14 11 15 15 15 18 26 4 355 1 1 5 4 4 359 360 0 355 354 357 359 359 351 344 8 4 353 10 359 38 115 101 92 106 160 160 158 161 166
105 63 66 83 4 8 3 67 103 43 84 128 112 96 75 46 51 54 60 51 58 60 68 70 63 61 65 61 62 60 54 51 49 54 57 55 59 67 65 56 31 31 37 30 28 22 20 18 14 12 16 9 5 8 5 348 359 353 355 349 355 357 357 356 353 345 344 344 346 353 1 2 351 327 303 323 22 14 355 73 133 82 77 114 102 152 181
81 106 115 134 132 88 43 61 77 75 69 77 94 90 91 89 74 70 72 64 54 62 74 68 68 65 63 71 69 76 70 63 53 61 79 84 86 94 91 74 51 55 47 29 28 21 15 21 14 7 7 10 359 360 337 354 349 347 345 351 357 353 348 344 338 336 336 341 347 356 354 1 358 346 328 289 266 258 278 305 260 172 215 200 174 195 213
86 90 111 122 75 74 66 62 74 82 75 65 70 74 76 64 71 66 72 68 66 59 69 81 65 70 69 71 73 87 95 88 82 60 55 71 79 87 94 102 140 127 111 89 66 37 353 356 18 7 359 3 1 328 336 346 344 344 349 354 354 344 342 335 327 325 343 334 336 337 344 344 337 332 323 320 305 308 341 271 349 10 60 320 248 186 165
106 80 82 93 97 88 91 89 85 85 95 96 91 87 82 82 71 64 61 74 76 79 77 93 107 98 117 121 126 112 108 131 162 181 175 200 130 125 158 186 162 133 110 84 64 47 340 305 324 289 332 314 305 309 329 323 332 343 348 349 346 339 331 327 327 329 331 332 330 335 334 335 329 327 325 325 306 220 224 234 210 191 166 63 71 81 66
86 145 139 127 122 118 114 101 89 84 79 80 87 104 116 118 118 113 97 92 102 98 103 128 135 164 158 115 72 168 188 192 203 186 105 30 51 340 356 32 49 56 48 33 353 328 305 287 276 277 306 309 300 304 295 314 323 350 356 358 356 339 334 333 328 323 321 314 312 305 296 305 306 319 310 310 314 299 283 238 196 188 170 169 195 195 153
108 126 128 106 90 80 81 90 100 116 125 112 102 100 110 119 117 130 143 134 138 128 148 81 80 92 98 114 96 68 50 46 60 86 93 81 80 84 74 47 46 33 7 1 344 357 344 352 1 2 352 345 340 335 341 354 9 8 353 349 344 337 340 347 338 334 328 321 311 299 288 288 290 282 276 294 310 301 250 212 185 171 190 193 177 157 155
134 145 139 128 108 110 100 101 107 96 91 86 78 74 66 59 56 50 54 48 48 54 91 110 100 83 36 45 83 76 64 51 59 71 53 38 25 13 13 41 24 7 354 7 21 25 22 7 10 18 14 12 10 10 3 356 0 2 357 358 356 346 346 347 337 336 334 330 328 321 308 293 295 294 28 75 51 77 299 340 350 296 194 186 187 180 174
134 115 108 104 113 104 117 116 103 97 92 98 92 79 80 63 52 44 37 22 22 40 40 48 58 74 87 69 48 39 36 36 66 77 76 56 22 331 333 11 16 38 39 38 30 20 10 11 12 13 13 11 9 1 358 356 2 2 6 5 1 357 354 348 346 343 335 325 316 316 318 316 308 308 302 250 88 61 42 6 34 39 39 358 259 194 169
80 101 113 118 117 119 98 78 72 69 66 69 73 73 71 76 56 40 40 26 1 0 26 27 47 59 52 46 58 42 47 57 57 39 29 1 4 20 42 54 49 36 28 26 19 0 1 15 16 11 7 357 357 346 348 350 358 1 359 4 356 348 343 337 345 345 337 330 322 319 323 332 353 347 349 335 323 36 53 55 37 33 28 39 43 9 324
101 97 101 100 105 107 107 103 87 73 66 69 59 56 77 70 69 52 45 15 35 83 65 32 19 40 65 46 40 31 45 52 39 7 0 39 56 67 53 47 39 31 16 7 1 3 11 16 5 360 357 336 330 335 348 355 355 351 346 353 351 347 345 340 337 336 335 329 325 324 328 344 339 345 341 339 334 317 332 37 66 62 51 35 18 10 37
86 89 89 78 68 63 69 74 73 86 84 69 61 55 66 125 119 125 225 227 91 80 77 61 29 12 67 43 1 10 56 47 32 34 46 45 39 40 37 41 35 27 14 5 357 356 1 350 340 332 327 323 6 17 16 10 5 356 344 342 345 343 341 331 329 329 332 332 340 338 331 333 330 327 317 330 330 317 323 347 354 20 41 34 26 30 33
45 40 84 78 69 78 87 104 131 130 114 111 110 154 200 141 150 132 53 84 105 101 105 88 101 1 81 55 57 60 61 30 32 36 52 53 46 43 41 32 25 25 15 4 346 327 329 338 354 2 4 9 16 15 12 12 1 351 340 339 342 345 344 339 336 328 324 345 342 333 344 347 344 336 323 320 322 323 340 17 7 352 28 355 16 36 38
70 66 87 118 125 107 85 96 111 95 97 109 138 39 48 72 58 44 63 67 62 47 66 93 305 103 81 62 76 51 46 34 56 51 51 41 41 43 35 34 26 18 8 344 322 7 23 18 12 3 354 356 3 0 358 349 345 336 335 332 339 342 331 327 321 320 336 340 324 326 335 335 329 327 327 321 317 304 307 16 93 98 64 38 58 28 50
81 70 72 102 130 132 146 174 139 117 132 154 92 84 74 61 56 49 59 84 72 42 345 328 104 80 78 68 86 82 46 51 51 46 31 28 45 42 40 33 13 356 342 335 1 15 16 13 358 351 338 344 346 341 338 337 328 325 327 331 333 328 325 319 322 328 321 312 313 315 315 316 322 326 329 330 322 310 310 108 118 123 145 154 126 68 50
106 88 76 93 112 134 191 54 93 88 120 116 109 102 105 96 64 43 37 53 77 309 268 110 69 61 74 64 67 71 84 74 64 31 28 55 36 27 22 19 12 349 355 7 6 12 9 354 348 341 328 336 334 328 323 316 314 305 304 325 329 317 313 317 318 311 312 304 302 307 308 303 310 310 320 330 329 312 318 93 150 153 162 182 109 100 86
118 105 87 72 67 32 20 37 88 100 291 125 129 118 101 101 108 94 53 40 2 308 79 93 86 66 91 83 84 90 85 80 59 44 59 46 42 31 19 17 28 359 351 350 10 12 356 335 332 321 326 334 326 313 309 313 304 307 324 323 316 303 297 300 305 304 298 303 301 307 304 302 293 312 324 325 322 314 315 322 101 112 110 99 95 97 134
97 93 92 55 22 349 295 107 58 21 21 44 73 93 124 126 134 127 100 86 269 211 66 62 83 153 101 101 98 86 83 55 41 66 61 50 46 30 13 17 9 2 355 359 355 344 315 319 317 320 329 317 310 307 296 287 305 332 302 293 295 293 294 297 297 294 298 300 306 307 302 300 315 328 340 334 308 292 306 351 45 71 64 66 61 93 164
108 120 132 133 23 22 28 31 36 23 53 112 123 113 103 98 97 104 106 250 309 182 110 225 189 90 100 104 93 93 76 42 80 78 54 48 18 23 6 352 342 339 329 301 297 290 300 317 311 312 312 316 315 313 300 284 259 263 283 289 282 281 284 286 288 294 305 305 304 314 333 5 19 22 12 338 300 283 337 83 90 83 73 68 56 25 21
108 87 99 108 100 70 38 29 18 4 351 105 133 125 111 113 117 117 156 255 265 237 188 163 103 115 109 104 115 105 86 70 81 69 137 214 294 7 332 316 305 302 280 280 279 310 343 314 298 292 306 309 305 303 311 301 263 263 263 286 297 308 320 336 342 343 338 331 336 19 36 25 25 19 5 359 353 3 70 95 97 101 94 77 67 61 61
106 117 121 119 102 81 70 50 13 343 302 119 114 105 126 125 126 167 209 212 241 212 160 122 129 122 120 120 120 133 134 148 194 193 219 232 230 278 287 303 310 303 301 301 60 355 308 295 289 298 308 301 293 289 294 318 323 300 289 281 287 296 301 310 315 315 329 348 42 42 32 32 31 9 10 22 6 32 63 73 85 89 93 88 75 55 49
70 59 63 63 74 76 63 23 339 350 80 102 128 128 133 155 155 188 188 212 245 291 87 138 138 134 139 157 155 168 175 188 188 206 234 238 235 246 281 285 288 282 313 284 211 295 307 290 289 291 290 281 281 294 314 333 310 308 295 297 294 287 289 285 292 301 359 68 51 47 48 40 20 14 27 29 38 43 54 61 58 59 64 63 62 63 57
61 56 60 75 73 89 84 38 50 66 73 107 121 114 109 111 207 233 186 187 198 229 161 133 145 160 186 200 189 174 168 172 180 198 221 228 220 209 248 276 260 248 314 312 249 284 297 293 289 295 287 263 286 298 319 341 329 318 311 301 298 297 301 300 312 1 76 75 59 48 39 27 22 27 23 33 44 51 58 64 62 64 63 62 59 64 58
112 100 90 83 77 79 82 96 139 88 73 86 81 109 150 186 214 247 217 199 215 208 139 162 180 194 201 194 158 157 167 175 183 200 207 201 184 192 278 246 239 198 238 247 271 311 304 289 288 301 313 344 345 331 338 340 336 315 301 307 342 352 52 61 53 50 59 68 64 53 40 34 40 31 28 34 42 49 62 66 68 70 66 62 63 64 64
55 71 60 70 55 61 70 47 21 116 112 138 159 221 197 190 162 92 63 313 274 275 127 129 149 321 286 183 178 156 169 186 189 190 204 212 184 170 229 228 208 200 202 231 308 289 278 280 301 310 312 343 333 342 334 338 342 348 6 27 23 28 43 78 83 79 67 64 58 36 35 47 44 38 42 45 49 58 68 81 81 77 69 68 66 64 64
150 138 146 99 77 144 132 125 322 254 186 172 150 196 221 209 175 181 256 273 265 148 143 161 43 12 4 42 149 179 184 184 183 196 202 193 162 200 259 280 256 245 240 248 249 243 258 268 294 313 338 344 326 334 335 355 354 30 15 28 41 38 49 63 77 76 77 81 62 43 50 42 35 37 35 40 50 54 62 69 72 71 72 68 64 65 68
13 42 125 147 195 166 139 157 243 261 194 181 172 204 222 201 170 147 178 276 308 98 137 128 102 81 18 335 151 180 188 177 183 199 186 140 163 198 211 240 247 229 227 219 227 243 257 260 284 34 351 334 326 2 353 349 53 23 3 20 44 73 73 66 71 73 78 61 51 58 59 62 59 51 36 28 38 75 86 84 82 83 82 84 83 81 78
70 2 332 261 187 167 186 204 227 256 235 184 196 216 197 137 114 175 248 262 257 216 265 140 154 183 231 235 272 185 172 185 187 194 177 179 188 193 199 233 230 219 214 204 237 234 239 225 230 93 38 343 324 332 333 291 125 101 64 46 53 85 98 91 85 87 83 92 95 82 74 90 86 72 54 66 63 64 75 84 90 92 92 94 97 96 95
168 168 244 325 1 26 10 197 216 224 240 239 213 197 168 142 160 170 264 265 251 250 249 157 186 174 194 229 247 267 227 183 192 196 193 218 217 184 168 195 201 209 217 215 256 238 202 196 182 137 56 356 321 325 329 303 165 123 84 54 44 48 79 100 100 78 66 67 69 68 74 76 82 81 70 60 65 69 72 75 94 110 118 120 122 118 112
255 275 238 172 167 132 65 354 309 258 247 274 246 196 176 176 178 190 208 227 238 211 220 173 184 217 213 208 236 289 19 76 160 160 152 147 66 68 122 147 172 182 217 249 272 206 141 143 128 96 67 2 338 346 338 315 318 118 112 105 92 78 74 87 110 129 129 99 86 82 67 63 75 85 84 80 76 77 81 82 76 75 80 88 92 90 90
142 168 230 211 179 130 119 157 275 278 234 224 268 249 190 187 193 184 197 212 222 210 187 196 205 181 185 178 168 171 180 195 149 113 124 133 132 171 175 148 166 182 188 284 292 128 122 118 123 105 50 346 331 336 315 296 259 129 120 123 121 112 105 97 85 94 124 132 117 105 96 94 93 94 100 102 109 98 91 83 73 72 75 68 65 73 78
53 21 258 170 170 183 187 156 0 321 292 217 218 260 239 204 198 193 188 199 211 197 172 176 193 206 197 194 185 201 216 222 175 136 156 169 172 202 171 142 156 152 174 336 351 128 134 127 136 158 327 328 320 323 295 276 216 141 147 146 149 126 118 115 118 115 118 136 141 127 117 101 85 70 70 64 69 80 82 81 76 73 78 86 86 82 78
161 191 34 354 232 200 177 154 151 228 286 294 252 245 259 235 220 213 217 200 216 213 196 190 197 205 180 158 161 203 329 303 69 95 115 111 115 122 131 138 149 156 351 101 118 135 148 167 182 286 311 305 307 280 276 276 205 150 151 149 141 124 130 135 139 132 128 118 116 113 113 116 117 101 81 80 86 87 88 88 88 87 90 88 85 85 86
154 193 192 66 6 100 147 164 172 205 221 238 236 226 233 241 240 266 278 273 254 218 192 189 192 198 181 172 180 188 174 129 135 185 156 138 142 137 143 155 173 177 155 151 184 215 198 191 195 249 271 289 284 273 268 216 87 72 95 125 140 146 144 152 155 146 134 130 123 126 127 121 117 108 113 117 118 117 109 108 110 105 95 99 101 102 104
188 213 213 191 183 181 238 223 225 241 232 193 42 4 30 14 313 284 258 257 264 244 222 218 219 212 184 180 172 191 188 144 137 172 190 155 152 164 170 178 186 186 180 183 215 236 230 225 204 245 290 318 320 320 96 101 103 107 100 107 131 157 163 165 175 160 147 152 152 144 143 146 143 140 139 129 120 117 113 115 121 116 113 112 110 108 102
235 197 192 150 157 202 216 243 248 230 215 201 181 138 151 194 233 248 249 240 234 244 270 270 241 222 192 183 178 178 161 139 132 133 136 149 152 155 167 170 181 194 199 210 214 223 232 247 260 282 295 314 325 78 91 93 96 104 117 119 116 126 143 161 168 158 150 141 135 135 149 162 150 105 101 106 108 110 121 125 123 116 111 107 114 112 109
221 204 200 195 199 202 197 199 211 192 171 182 188 187 177 177 200 295 326 307 85 67 3 304 292 290 233 179 179 170 160 150 141 142 135 142 153 161 158 169 178 184 205 216 211 206 219 220 220 231 244 85 41 82 87 99 102 99 117 137 149 136 96 95 107 124 133 132 131 136 138 120 112 118 121 121 119 120 122 121 120 116 117 115 108 104 103
231 204 167 169 209 223 221 228 217 228 217 197 197 192 180 177 163 327 22 24 53 145 211 240 286 304 7 27 323 236 167 153 152 150 146 136 135 141 152 154 167 188 200 222 235 212 201 212 218 224 222 155 188 162 121 107 113 114 97 96 103 113 122 130 127 125 123 127 123 117 111 120 126 120 124 133 131 132 131 128 124 120 113 112 115 114 115